Regional Weather Roundup
Issued by NWS

Home | Current Version | Previous Version | Text Only | Print | Product List | Glossary On
Versions: 1 2 3 4 5 6 7 8 9 10 11 12 13 14 15 16 17 18 19 20 21 22 23 24 25 26 27 28 29 30 31 32 33 34 35 36 37 38 39 40 41 42 43 44 45 46 47 48 49 50
531
ASUS43 KOAX 281010
RWRNE

WEATHER ROUNDUP FOR NEBRASKA
NATIONAL WEATHER SERVICE OMAHA NE
400 AM CST TUE FEB 28 2017

NOTES: SATELLITE DATA IS BEING USED TO AUGMENT CLOUD COVER ABOVE
       12000 FEET.
       "FAIR" INDICATES FEW OR NO CLOUDS BELOW 12,000 FEET WITH NO
       SIGNIFICANT WEATHER AND/OR OBSTRUCTIONS TO VISIBILITY.

  * THESE STATIONS DO NOT REPORT WEATHER SUCH AS RAIN...SNOW OR FOG.

NEZ001>004-019>022-054>056-281100-
NEBRASKA PANHANDLE

CITY           SKY/WX    TMP DP  RH WIND       PRES   REMARKS
SCOTTSBLUFF    PTCLDY    28  17  63 NW16      29.69F WCI  16
ALLIANCE       CLOUDY    23  17  78 W13       29.66S WCI  11
CHADRON        CLOUDY    17  14  88 S5        29.69R WCI  10
KIMBALL        CLOUDY    30  16  56 NW17G23   29.65F WCI  18
SIDNEY         CLEAR     22  17  81 CALM      29.70F
$$

NEZ057>060-069>072-079>082-281100-
SOUTHWEST NEBRASKA

CITY           SKY/WX    TMP DP  RH WIND       PRES   REMARKS
NORTH PLATTE   CLEAR     29  24  82 NW13      29.69R WCI  19
IMPERIAL       CLEAR     30  25  81 NW14      29.71R WCI  19
LEXINGTON      CLOUDY    32  28  86 NW12      29.63S WCI  23
MCCOOK         CLEAR     32  26  78 W15       29.68R WCI  22
OGALLALA       CLEAR     31  27  84 CALM      29.70F
$$

NEZ005>010-023>029-035>040-094-281100-
NORTH CENTRAL NEBRASKA

CITY           SKY/WX    TMP DP  RH WIND       PRES   REMARKS
VALENTINE      CLOUDY    29  23  78 N7        29.69R WCI  22
AINSWORTH      CLOUDY    28  26  92 NW9       29.68R WCI  19
BROKEN BOW     CLOUDY    32  28  85 NW17      29.63R WCI  21
O`NEILL        CLOUDY    30  28  94 N14       29.61S WCI  19
ORD            CLOUDY    36  33  89 NW9       29.61R WCI  29
THEDFORD       CLEAR     28  25  89 W9        29.69R WCI  19
$$

NEZ041-046>049-061>064-073>077-083>087-281100-
SOUTH CENTRAL NEBRASKA

CITY           SKY/WX    TMP DP  RH WIND       PRES   REMARKS
GRAND ISLAND   CLOUDY    36  36 100 W13       29.57R WCI  27
AURORA         CLOUDY    36  35  96 W12       29.55S WCI  28
HASTINGS       CLOUDY    40  27  59 W17       29.58R WCI  31
HEBRON         CLOUDY    43  34  70 SW8       29.57F
HOLDREGE       CLOUDY    35  22  59 W15       29.62R WCI  26
KEARNEY *      CLEAR     36  27  69 W13       29.62R WCI  27
YORK           CLOUDY    37  37 100 SW10      29.55S WCI  30
$$

NEZ011>018-030>034-042>045-281100-
NORTHEAST NEBRASKA

CITY           SKY/WX    TMP DP  RH WIND       PRES   REMARKS
NORFOLK        CLOUDY    35  31  85 NW6       29.57S WCI  30
ALBION         MOCLDY    32  30  92 NW9       29.59R WCI  24
BLAIR          CLOUDY    48  44  87 S6        29.56F
FREMONT        CLOUDY    42  38  86 CALM      29.57F
TEKAMAH        CLOUDY    35  31  85 N8        29.58F WCI  29
WAYNE          MOCLDY    32  30  92 CALM      29.58F
$$

NEZ050>053-065>068-078-088>093-281100-
SOUTHEAST NEBRASKA

CITY           SKY/WX    TMP DP  RH WIND       PRES   REMARKS
LINCOLN        CLOUDY    46  43  89 SW6       29.57F
OMAHA EPPLEY   CLOUDY    46  41  82 SE9       29.56F
BEATRICE       PTCLDY    50  43  77 SW12      29.58S
FALLS CITY     CLEAR     59  55  87 S15G24    29.60F
NEBRASKA CITY  MOCLDY    51  50  98 S15       29.57F FOG
PLATTSMOUTH    CLOUDY    51  46  84 S9        29.56F
$$

NEZ044-045-051>053-067-281100-
OMAHA AREA

CITY           SKY/WX    TMP DP  RH WIND       PRES   REMARKS
OMAHA EPPLEY   CLOUDY    46  41  82 SE9       29.56F
BLAIR          CLOUDY    48  44  87 S6        29.56F
FREMONT        CLOUDY    42  38  86 CALM      29.57F
MILLARD        CLOUDY    53  49  87 SE6       29.56F
OFFUTT AFB     CLOUDY    49  44  85 CALM      29.56F
PLATTSMOUTH    CLOUDY    51  46  84 S9        29.56F
WAHOO          FAIR      37  35  94 CALM      29.55F FOG
$$




USA.gov is the U.S. government's official web portal to all federal, state and local government web resources and services.